Location: Cieszkowy
(50.3290°N, 20.5336°E)
Time: 19:58:48
(UTC+00:00)

Cosmos 990 Rocket - Pass Details

Date: 09 September 2024
Orbit: 744 x 765 km, 74.0° (Epoch: 13 October)

Event Time Altitude Azimuth Distance (km) Brightness Sun altitude
Rises 17:31:34 0° 328° (NNW) 3,241 8.0 -5.1°
Reaches altitude 10° 17:34:11 10° 318° (NW) 2,307 7.5 -5.5°
Maximum altitude 17:38:41 30° 259° (W) 1,341 6.1 -6.2°
Drops below altitude 10° 17:43:09 10° 199° (SSW) 2,281 6.5 -6.9°
Sets 17:45:43 0° 189° (S) 3,197 7.1 -7.3°
